Selinsgrove, PA

4:19 PM EST on December 10, 2019 (GMT -0500)
Penn Valley

Weather History for KSEG - November, 2019

Change the Weather History Date:

Thursday, November 14, 2019

  Actual Average (KIPT) Record (KIPT)
Temperature  
Mean Temperature 33 °F -  
Max Temperature 39 °F 47 °F 69 °F (1989)
Min Temperature 27 °F 30 °F 13 °F (1986)
Degree Days  
Heating Degree Days 32    
Moisture  
Dew Point 18 °F    
Average Humidity 56    
Maximum Humidity 82    
Minimum Humidity 43    
Precipitation  
Precipitation 0.00 in - - ()
Sea Level Pressure  
Sea Level Pressure 30.33 in    
Wind  
Wind Speed 7 mph (South)    
Max Wind Speed 15 mph    
Max Gust Speed 22 mph    
Visibility 10 miles    
Events      
Averages and records for this station are not official NWS values.
T = Trace of Precipitation, MM = Missing Value Source: NWS Daily Summary

Daily Weather History Graph

Daily Weather History Graph

Search for Another Location

Airport or City:

Astronomy

Nov. 14, 2019 Rise Set
Actual Time 6:53 AM EST 4:50 PM EST
Civil Twilight 6:23 AM EST 5:19 PM EST
Nautical Twilight 5:50 AM EST 5:52 PM EST
Astronomical Twilight 5:18 AM EST 6:24 PM EST
Moon 6:33 PM EST (11/14) 8:46 AM EST (11/14)
Length of Visible Light 10h 55m
Length of Day
9h 57m
Waning Gibbous, 95% of the Moon is Illuminated
Nov 14
Waning Gibbous
Nov 19
Last Quarter
Nov 26
New
Dec 4
First Quarter
Dec 12
Full

Hourly Weather History & Observations

Time (EST) Temp. Windchill Dew Point Humidity Pressure Visibility Wind Dir Wind Speed Gust Speed Precip Events Conditions
12:53 AM 28.9 °F 21.9 °F 15.1 °F 56% 30.39 in 10.0 mi South 6.9 mph - N/A   Clear
1:53 AM 28.9 °F 20.4 °F 15.1 °F 56% 30.38 in 10.0 mi South 9.2 mph - N/A   Clear
2:53 AM 28.9 °F 21.1 °F 16.0 °F 58% 30.37 in 10.0 mi South 8.1 mph - N/A   Clear
4:53 AM 28.0 °F 22.8 °F 16.0 °F 61% 30.37 in 10.0 mi South 4.6 mph - N/A   Clear
5:53 AM 28.0 °F 20.8 °F 16.0 °F 61% 30.37 in 10.0 mi South 6.9 mph - N/A   Clear
6:53 AM 27.0 °F 20.5 °F 16.0 °F 63% 30.38 in 10.0 mi South 5.8 mph - N/A   Clear
7:53 AM 28.9 °F 19.8 °F 16.0 °F 58% 30.38 in 10.0 mi South 10.4 mph - N/A   Clear
8:53 AM 30.9 °F 20.2 °F 16.0 °F 54% 30.37 in 10.0 mi South 15.0 mph 21.9 mph N/A   Clear
9:53 AM 33.1 °F 23.4 °F 16.0 °F 50% 30.36 in 10.0 mi South 13.8 mph - N/A   Clear
10:53 AM 33.1 °F 24.4 °F 16.0 °F 50% 30.35 in 10.0 mi South 11.5 mph - N/A   Mostly Cloudy
11:53 AM 35.1 °F 28.6 °F 16.0 °F 46% 30.34 in 10.0 mi South 8.1 mph - N/A   Overcast
12:53 PM 36.0 °F 29.0 °F 17.1 °F 46% 30.33 in 10.0 mi South 9.2 mph - N/A   Clear
1:53 PM 37.9 °F 30.9 °F 17.1 °F 43% 30.31 in 10.0 mi South 10.4 mph - N/A   Clear
2:53 PM 39.0 °F 32.3 °F 19.0 °F 45% 30.28 in 10.0 mi SSE 10.4 mph - N/A   Clear
3:53 PM 39.0 °F 35.7 °F 19.0 °F 45% 30.28 in 10.0 mi South 4.6 mph - N/A   Clear
4:53 PM 39.0 °F 35.7 °F 19.9 °F 46% 30.28 in 10.0 mi SSW 4.6 mph - N/A   Clear
5:53 PM 39.0 °F 34.8 °F 19.0 °F 45% 30.29 in 10.0 mi South 5.8 mph - N/A   Clear
6:53 PM 37.0 °F 33.3 °F 19.0 °F 48% 30.29 in 10.0 mi SSW 4.6 mph - N/A   Partly Cloudy
7:53 PM 35.1 °F - 19.9 °F 54% 30.30 in 10.0 mi Calm Calm - N/A   Partly Cloudy
8:53 PM 32.0 °F - 24.1 °F 73% 30.31 in 10.0 mi Calm Calm - N/A   Clear
9:53 PM 30.9 °F - 24.1 °F 76% 30.31 in 10.0 mi Calm Calm - N/A   Clear
10:53 PM 30.0 °F - 25.0 °F 82% 30.31 in 10.0 mi Calm Calm - N/A   Clear
11:53 PM 28.0 °F - 23.0 °F 81% 30.29 in 10.0 mi Calm Calm - N/A   Clear